Date String (YYYY-MM-DD hh:mm:ss) UTC,Instrument flags,Ambient pressure (hPa),Sample flow (lpm),Bypass flow (lpm),Sample temperature (°C),Ambient temperature (°C),ASC tube jacket temperature (°C),LED temperature (°C),Box temperature (°C),Sample RH (%),Span deviation,Mass concentration (μg/m³),Mass concentration (μg/m³),Mass concentration (μg/m³)
DateTimeUTC,F1_M11,P_M11,Q1_M11,Q2_M11,T1_M11,T2_M11,T3_M11,T4_M11,T5_M11,U1_M11,ZSPAN_M11,X0_M11,X2_M11,X1_M11
2022-12-04 16:00:00,,0827.4,5.00,0.00,22.6,21.5,00.0,31.4,24.5,15.7,0000.0,0008.78,0003.53,0002.83
2022-12-04 16:01:00,,0827.3,5.00,0.00,22.6,21.5,00.0,31.4,24.4,16.3,0000.0,0008.98,0003.59,0002.89
2022-12-04 16:02:00,,0827.3,5.01,0.00,22.6,21.5,00.0,31.4,24.5,16.4,0000.0,0009.16,0003.68,0002.96
2022-12-04 16:03:00,,0827.2,5.00,0.00,22.6,21.5,00.0,31.4,24.5,16.4,0000.0,0009.44,0003.78,0003.05
2022-12-04 16:04:00,,0827.4,5.00,0.00,22.6,21.6,00.0,31.4,24.5,16.5,0000.0,0009.59,0003.87,0003.14
2022-12-04 16:05:00,,0827.3,4.99,0.00,22.7,21.6,00.0,31.5,24.5,16.6,0000.0,0009.66,0003.92,0003.22
2022-12-04 16:06:00,,0827.4,4.99,0.00,22.7,21.6,00.0,31.5,24.5,16.4,0000.0,0010.07,0004.00,0003.29
2022-12-04 16:07:00,,0827.4,5.00,0.00,22.7,21.6,00.0,31.5,24.5,15.9,0000.0,0009.95,0004.08,0003.35
2022-12-04 16:08:00,,0827.4,5.00,0.00,22.7,21.6,00.0,31.5,24.5,16.3,0000.0,0009.81,0004.13,0003.41
2022-12-04 16:09:00,,0827.3,5.00,0.00,22.7,21.6,00.0,31.5,24.5,15.8,0000.0,0009.74,0004.20,0003.46
2022-12-04 16:10:00,,0827.3,5.01,0.00,22.7,21.7,00.0,31.5,24.5,15.6,0000.0,0008.89,0004.28,0003.51
2022-12-04 16:11:00,,0827.3,5.00,0.00,22.7,21.7,00.0,31.5,24.6,15.2,0000.0,0008.74,0004.31,0003.53
2022-12-04 16:12:00,,0827.4,5.00,0.00,22.8,21.7,00.0,31.6,24.6,15.3,0000.0,0008.66,0004.30,0003.54
2022-12-04 16:13:00,,0827.4,5.00,0.00,22.8,21.7,00.0,31.6,24.6,15.4,0000.0,0008.60,0004.26,0003.54
2022-12-04 16:14:00,,0827.4,4.99,0.00,22.8,21.7,00.0,31.6,24.6,15.3,0000.0,0009.52,0004.24,0003.52
2022-12-04 16:15:00,,0827.5,5.00,0.00,22.8,21.8,00.0,31.6,24.7,15.4,0000.0,0009.49,0004.17,0003.48
2022-12-04 16:16:00,,0827.6,4.99,0.00,22.8,21.8,00.0,31.6,24.7,15.3,0000.0,0009.98,0004.16,0003.47
2022-12-04 16:17:00,,0827.5,4.99,0.00,22.8,21.8,00.0,31.6,24.7,15.1,0000.0,0010.58,0004.13,0003.41
2022-12-04 16:18:00,,0827.4,5.00,0.00,22.9,21.8,00.0,31.6,24.7,14.6,0000.0,0010.42,0004.13,0003.37
2022-12-04 16:19:00,,0827.4,5.00,0.00,22.9,21.8,00.0,31.7,24.8,14.6,0000.0,0010.63,0004.11,0003.34
2022-12-04 16:20:00,,0827.3,5.00,0.00,22.9,21.8,00.0,31.7,24.8,14.9,0000.0,0011.17,0004.09,0003.30
2022-12-04 16:21:00,,0827.3,5.00,0.00,22.9,21.9,00.0,31.7,24.8,14.3,0000.0,0011.36,0004.07,0003.26
2022-12-04 16:22:00,,0827.4,5.00,0.00,22.9,21.9,00.0,31.7,24.8,14.8,0000.0,0011.37,0004.04,0003.23
2022-12-04 16:23:00,,0827.4,5.00,0.00,22.9,21.9,00.0,31.7,24.8,16.0,0000.0,0012.03,0004.04,0003.25
2022-12-04 16:24:00,,0827.5,5.00,0.00,22.9,21.9,00.0,31.7,24.8,16.4,0000.0,0012.40,0004.12,0003.29
2022-12-04 16:25:00,,0827.4,5.00,0.00,23.0,21.9,00.0,31.8,24.8,16.2,0000.0,0012.59,0004.21,0003.34
2022-12-04 16:26:00,,0827.4,5.00,0.00,23.0,21.9,00.0,31.8,24.8,15.9,0000.0,0012.01,0004.29,0003.40
2022-12-04 16:27:00,,0827.4,4.99,0.00,23.0,21.9,00.0,31.8,24.8,15.7,0000.0,0012.08,0004.38,0003.45
2022-12-04 16:28:00,,0827.3,4.99,0.00,23.0,21.9,00.0,31.8,24.9,15.6,0000.0,0011.30,0004.42,0003.50
2022-12-04 16:29:00,,0827.3,5.00,0.00,23.0,22.0,00.0,31.8,24.9,15.7,0000.0,0011.35,0004.44,0003.53
2022-12-04 16:30:00,,0827.3,5.00,0.00,23.0,22.0,00.0,31.8,24.9,15.5,0000.0,0011.35,0004.51,0003.57
2022-12-04 16:31:00,,0827.3,5.01,0.00,23.1,22.0,00.0,31.8,24.9,14.1,0000.0,0011.52,0004.56,0003.59
2022-12-04 16:32:00,,0827.2,5.00,0.00,23.1,22.1,00.0,31.8,24.9,14.2,0000.0,0011.57,0004.58,0003.60
2022-12-04 16:33:00,,0827.2,5.01,0.00,23.1,22.1,00.0,31.9,24.9,14.3,0000.0,0012.44,0004.61,0003.61
2022-12-04 16:34:00,,0827.2,5.00,0.00,23.1,22.1,00.0,31.9,25.0,14.3,0000.0,0012.67,0004.61,0003.61
2022-12-04 16:35:00,,0827.2,5.00,0.00,23.1,22.1,00.0,31.9,25.0,15.0,0000.0,0012.60,0004.57,0003.58
2022-12-04 16:36:00,,0827.1,4.99,0.00,23.1,22.1,00.0,31.9,25.0,15.2,0000.0,0012.53,0004.50,0003.55
2022-12-04 16:37:00,,0827.1,5.00,0.00,23.2,22.1,00.0,31.9,25.0,14.7,0000.0,0012.43,0004.48,0003.54
2022-12-04 16:38:00,,0827.1,5.01,0.00,23.2,22.1,00.0,31.9,25.0,14.9,0000.0,0012.55,0004.47,0003.53
2022-12-04 16:39:00,,0827.5,4.99,0.00,23.2,22.2,00.0,32.0,25.0,15.1,0000.0,0013.51,0004.49,0003.54
2022-12-04 16:40:00,,0827.1,5.01,0.00,23.2,22.2,00.0,32.0,25.0,15.4,0000.0,0014.65,0004.55,0003.56
2022-12-04 16:41:00,,0827.1,5.01,0.00,23.2,22.2,00.0,32.0,25.1,15.5,0000.0,0015.19,0004.61,0003.58
2022-12-04 16:42:00,,0827.0,5.00,0.00,23.2,22.2,00.0,32.0,25.1,15.2,0000.0,0015.24,0004.65,0003.62
2022-12-04 16:43:00,,0827.2,5.00,0.00,23.2,22.2,00.0,32.0,25.1,15.2,0000.0,0015.32,0004.79,0003.68
2022-12-04 16:44:00,,0827.3,5.00,0.00,23.3,22.2,00.0,32.0,25.1,15.1,0000.0,0015.04,0004.95,0003.75
2022-12-04 16:45:00,,0827.1,4.98,0.00,23.3,22.2,00.0,32.0,25.1,14.6,0000.0,0014.65,0005.07,0003.80
2022-12-04 16:46:00,,0827.1,4.99,0.00,23.3,22.2,00.0,32.0,25.1,14.4,0000.0,0014.97,0005.17,0003.84
2022-12-04 16:47:00,,0827.1,5.01,0.00,23.3,22.2,00.0,32.1,25.1,14.3,0000.0,0015.65,0005.26,0003.86
2022-12-04 16:48:00,,0827.1,5.01,0.00,23.3,22.2,00.0,32.1,25.1,14.4,0000.0,0015.45,0005.27,0003.89
2022-12-04 16:49:00,,0827.4,4.98,0.00,23.3,22.2,00.0,32.1,25.1,15.0,0000.0,0015.32,0005.37,0003.91
2022-12-04 16:50:00,,0827.3,5.00,0.00,23.3,22.2,00.0,32.1,25.2,14.5,0000.0,0014.65,0005.44,0003.93
2022-12-04 16:51:00,,0827.5,5.01,0.00,23.3,22.3,00.0,32.1,25.2,14.3,0000.0,0014.61,0005.52,0003.95
2022-12-04 16:52:00,,0827.2,5.01,0.00,23.3,22.3,00.0,32.1,25.2,14.3,0000.0,0014.48,0005.57,0003.97
2022-12-04 16:53:00,,0827.0,5.00,0.00,23.3,22.2,00.0,32.1,25.2,14.6,0000.0,0014.48,0005.67,0003.98
2022-12-04 16:54:00,,0827.0,4.99,0.00,23.3,22.2,00.0,32.1,25.2,14.6,0000.0,0014.86,0005.62,0003.99
2022-12-04 16:55:00,,0826.9,4.99,0.00,23.4,22.3,00.0,32.2,25.2,14.8,0000.0,0015.22,0005.57,0004.00
2022-12-04 16:56:00,,0826.9,5.00,0.00,23.4,22.3,00.0,32.2,25.2,14.4,0000.0,0015.86,0005.55,0004.02
2022-12-04 16:57:00,,0826.9,5.01,0.00,23.4,22.3,00.0,32.2,25.2,14.3,0000.0,0016.70,0005.57,0004.05
2022-12-04 16:58:00,,0826.9,5.01,0.00,23.4,22.3,00.0,32.2,25.2,14.1,0000.0,0016.69,0005.60,0004.09
2022-12-04 16:59:00,,0827.1,5.00,0.00,23.4,22.3,00.0,32.2,25.2,14.4,0000.0,0017.01,0005.67,0004.12
